Regional Weather Roundup
Issued by NWS Upton, NY

Home | Current Version | Previous Version | Text Only | Print | Product List | Glossary On
Versions: 1 2 3 4 5 6 7 8 9 10 11 12 13 14 15 16 17 18 19 20 21 22 23 24 25 26 27 28 29 30 31 32 33 34 35 36 37 38 39 40 41 42 43 44 45 46 47 48 49 50
000
ASUS41 KOKX 070518
RWROKX

REGIONAL WEATHER ROUNDUP
NATIONAL WEATHER SERVICE NEW YORK NY
100 AM EDT TUE JUL 07 2015

NOTE: "FAIR" INDICATES FEW OR NO CLOUDS BELOW 12,000 FEET WITH NO
SIGNIFICANT WEATHER AND/OR OBSTRUCTIONS TO VISIBILITY.

NYZ071-072-176-178-NJZ106-104-070600-
NEW YORK CITY METRO AREA


CITY           SKY/WX    TMP DP  RH WIND       PRES   REMARKS
CENTRAL PARK   CLOUDY    76  69  79 CALM      30.11S
LAGUARDIA APRT CLOUDY    75  69  81 S8        30.08S
KENNEDY INTL   CLOUDY    74  69  85 SE6       30.09F
NEWARK/LIBERTY CLOUDY    75  70  84 CALM      30.08F
BRNX BOT. GARD   N/A     73  68  83 CALM      30.09F
TETERBORO      CLOUDY    75  68  78 S5        30.07F
$$

NYZ177-179-078>081-070600-
LONG ISLAND NEW YORK

CITY           SKY/WX    TMP DP  RH WIND       PRES   REMARKS
FARMINGDALE    MOCLDY    73  69  87 S9        30.09F
ISLIP          MOCLDY    73  68  84 S8        30.07F
SHIRLEY        PTCLDY    74  68  81 S10G20    30.10F
WESTHAMPTON    CLEAR     73  70  90 S8        30.11S
MONTAUK POINT    N/A     72  68  87 VRB5      30.11F
$$

NYZ052-065-067-070600-
HUDSON VALLEY

CITY           SKY/WX    TMP DP  RH WIND       PRES   REMARKS
WHITE PLAINS   CLOUDY    71  65  81 CALM      30.09F
NEWBURGH       PTCLDY    73  66  78 VRB6      30.10F
MONTGOMERY     CLOUDY    70  68  93 CALM      30.08F
POUGHKEEPSIE   CLOUDY    73  65  75 CALM      30.08S
ALBANY         PTCLDY    73  64  73 S9        30.06S
$$

NJZ001-105-106-008-010-013-015-019>022-104-070600-
NEW JERSEY

CITY           SKY/WX    TMP DP  RH WIND       PRES   REMARKS
NEWARK/LIBERTY CLOUDY    75  70  84 CALM      30.08F
TETERBORO      CLOUDY    75  68  78 S5        30.07F
CALDWELL       CLOUDY    74  67  78 CALM      30.08F
MORRISTOWN     CLOUDY    72  68  88 CALM      30.08F
SOMERVILLE     CLOUDY    72  70  93 CALM      30.05F
SUSSEX         CLOUDY    73  66  78 CALM      30.08F
ANDOVER          N/A     71  68  90 CALM      30.08F
TRENTON        MOCLDY    75  71  87 S6        30.06S
MILLVILLE      PTCLDY    76  73  91 S7        30.05F
ATLANTIC CITY  NOT AVBL
WRIGHTSTOWN    CLOUDY    73  73 100 S3        30.04F
TOMS RIVER     MOCLDY    75  72  88 S5        30.07F
BELMAR         CLOUDY    75  70  83 SE5       30.07F
$$

PAZ047>061-062-071-070600-
EASTERN PENNSYLVANIA

CITY           SKY/WX    TMP DP  RH WIND       PRES   REMARKS
PHILADELPHIA   CLOUDY    77  72  84 SE7       30.05S
ALLENTOWN      CLOUDY    74  71  91 E3        30.05F
SCRANTON       CLOUDY    75  67  76 S3        30.05F
$$

CTZ002-004>006-009-010-012-RIZ004-006-007-MAZ004-011-015-070600-
SOUTHERN NEW ENGLAND
 IN CT

CITY           SKY/WX    TMP DP  RH WIND       PRES   REMARKS
BRADLEY INTL   MOCLDY    70  63  78 S6        30.09F
HARTFORD       CLOUDY    70  64  81 S6        30.10S
DANBURY        PTCLDY    71  62  73 S5        30.12S
WTRBRY/OXFORD  CLOUDY    70  61  73 S3        30.13S
BRIDGEPORT     MOCLDY    72  66  81 CALM      30.10S
MERIDEN        CLOUDY    70  65  84 CALM      30.10S
NEW HAVEN      CLOUDY    70  67  90 CALM      30.11S
CHESTER        MOCLDY    68  64  88 CALM      30.12S
GROTON         MOCLDY    68  65  90 NE3       30.10S
WILLIMANTIC    CLEAR     66  63  90 CALM      30.12S

 IN RI

CITY           SKY/WX    TMP DP  RH WIND       PRES   REMARKS
PROVIDENCE     CLEAR     67  63  87 CALM      30.12F
BLOCK ISLAND   CLEAR     70  66  88 S5        30.11S
WESTERLY       MOCLDY    66  64  93 CALM      30.12S

 IN MA

CITY           SKY/WX    TMP DP  RH WIND       PRES   REMARKS
BOSTON         PTCLDY    69  63  81 S6        30.12R
WORCESTER      CLEAR     67  62  84 W5        30.13F
WESTFIELD      MOCLDY    68  64  87 CALM      30.10S
PROVINCETOWN   CLEAR     64   9  11 S7        30.13S
NANTUCKET      CLEAR     64  61  90 SE6       30.13F
$$

ANZ330-335-338-340-345-350-353-355-070600-
COASTAL MARINE OBSERVATIONS


STATION/POSITION TIME  SKY/WX   TEMP    WIND        PRES    VSBY  WAVE
                                AIR SEA DIR/SP/G                  HT/PER
                 (UTC)          (F)     (DEG/KT/KT) (MB)    (MI)  (FT/S)
NY HARB ENTRANCE 0450            72 71  170/ 10/ 10 1018.1          2/ 8
4S FIRE IS       0403               69                N/A           2/ 6
20S FIRE ISLAND  0450            72 71  160/ 10/ 12 1018.5          2/ 3
GREAT SOUTH BAY  0400            73 76  180/ 12/ 14   N/A
23SW MTP         0450            71 69  180/  8/  8 1018.7          2/ 8
HUDSON CANYON    NOT AVBL
KINGS POINT      0400            74 70  190/  4/  6 1018.4
CENTRAL LI SOUND NOT AVBL
EASTERN LI SOUND 0400            66 64  130/  4/  4   N/A
ROBBINS REEF     0400            72     160/  8/  9 1017.6
$$


>>>>>>>>>>>>>>>>>>>>>>>>>>>> KEY <<<<<<<<<<<<<<<<<<<<<<<<<<<
>                                                          <
>     SKY/WX - SKY CONDITION/PRESENT WEATHER               <
>     TMP    - TEMPERATURE IN FAHRENHEIT                   <
>     DP     - DEWPOINT IN FAHRENHEIT                      <
>     RH     - RELATIVE HUMIDITY IN PERCENT                <
>     WIND   - DIRECTION AND SPEED IN MPH                  <
>     PRES   - MEAN SEA LEVEL PRESSURE IN INCHES OF HG     <
>     WCI    - WIND CHILL INDEX                            <
>     VSB    - VISIBILITY IN MILES                         <
>     HX     - HEAT INDEX                                  <
>     TC     - TEMPERATURE IN CELSIUS                      <
>     VRB    - VARIABLE WIND DIRECTION                     <
>                                                          <
>>>>>>>>>>>>>>>>>>>>>>>>>>>> KEY <<<<<<<<<<<<<<<<<<<<<<<<<<<




USA.gov is the U.S. government's official web portal to all federal, state and local government web resources and services.